VLG3BL LFPO-LEBB

Flight info

Callsign VLG3BL
Flight time 1h 21m
Altitude 37000
Route LGL UT176 TERPO UN872 ERIGA UZ218 FUJTI DCT PEXOD DCT NENEM N867 MAPAX
Aircraft A320/M-SDE3FGHIRWY/LB1

Departure

Time 2026-05-04 16:20
Airport Paris-Orly Airport (LFPO)

Arrival

Time 2026-05-04 17:41
Airport Bilbao Airport (LEBB)
Time Latitude Longitude Altitude Speed Heading
2026-05-04 16:11 48.73209 2.36188 284 ft 0 kts 155°
2026-05-04 16:12 48.73223 2.36170 284 ft 2 kts 123°
2026-05-04 16:13 48.73243 2.36138 284 ft 2 kts 132°
2026-05-04 16:13 48.73263 2.36107 284 ft 1 kts 155°
2026-05-04 16:14 48.73277 2.36104 284 ft 0 kts 194°
2026-05-04 16:14 48.73278 2.36104 284 ft 0 kts 194°
2026-05-04 16:16 48.73158 2.35889 284 ft 24 kts 237°
2026-05-04 16:16 48.72796 2.35586 279 ft 20 kts 160°
2026-05-04 16:17 48.72531 2.35692 278 ft 19 kts 171°
2026-05-04 16:18 48.72170 2.35620 278 ft 16 kts 164°
2026-05-04 16:18 48.72064 2.35692 278 ft 16 kts 143°
2026-05-04 16:19 48.72029 2.36333 281 ft 71 kts 73°
2026-05-04 16:19 48.72512 2.38959 455 ft 168 kts 75°
2026-05-04 16:20 48.73468 2.44145 2381 ft 174 kts 75°
2026-05-04 16:20 48.74087 2.47678 3658 ft 178 kts 79°
2026-05-04 16:21 48.74282 2.54019 4938 ft 228 kts 88°
2026-05-04 16:22 48.73227 2.58801 5863 ft 268 kts 136°
2026-05-04 16:22 48.67978 2.58854 8290 ft 287 kts 222°
2026-05-04 16:23 48.67027 2.50333 10449 ft 300 kts 277°
2026-05-04 16:24 48.67991 2.37456 12250 ft 342 kts 275°
2026-05-04 16:25 48.68488 2.30192 13435 ft 351 kts 275°
2026-05-04 16:26 48.69489 2.15298 15852 ft 363 kts 274°
2026-05-04 16:26 48.70243 2.03824 17546 ft 370 kts 274°
2026-05-04 16:27 48.70749 1.96037 18644 ft 374 kts 274°
2026-05-04 16:28 48.71505 1.84201 20210 ft 382 kts 274°
2026-05-04 16:28 48.72263 1.72152 21682 ft 389 kts 274°
2026-05-04 16:29 48.73278 1.55693 23520 ft 397 kts 273°
2026-05-04 16:30 48.74040 1.43117 24775 ft 404 kts 273°
2026-05-04 16:31 48.74546 1.34616 25559 ft 409 kts 272°
2026-05-04 16:31 48.75302 1.21716 26695 ft 415 kts 272°
2026-05-04 16:32 48.76052 1.08578 27750 ft 422 kts 271°
2026-05-04 16:33 48.74783 1.00177 28324 ft 412 kts 232°
2026-05-04 16:33 48.71103 0.93565 29040 ft 413 kts 227°
2026-05-04 16:34 48.67401 0.86810 29420 ft 423 kts 229°
2026-05-04 16:34 48.65534 0.83342 29552 ft 428 kts 229°
2026-05-04 16:35 48.59850 0.72686 30004 ft 440 kts 229°
2026-05-04 16:35 48.54122 0.61926 30991 ft 437 kts 229°
2026-05-04 16:36 48.52211 0.58347 31301 ft 436 kts 229°
2026-05-04 16:36 48.48427 0.51265 31890 ft 433 kts 229°
2026-05-04 16:37 48.44649 0.44217 32402 ft 433 kts 229°
2026-05-04 16:37 48.42762 0.40705 32654 ft 432 kts 229°
2026-05-04 16:37 48.39002 0.33714 33179 ft 430 kts 228°
2026-05-04 16:38 48.35248 0.26756 33647 ft 429 kts 228°
2026-05-04 16:39 48.29627 0.16366 34291 ft 428 kts 228°
2026-05-04 16:39 48.25880 0.09462 34675 ft 427 kts 228°
2026-05-04 16:40 48.22148 0.02606 35002 ft 426 kts 228°
2026-05-04 16:40 48.18394 -0.04272 35275 ft 427 kts 228°
2026-05-04 16:41 48.14623 -0.11165 35536 ft 428 kts 228°
2026-05-04 16:41 48.08914 -0.21567 35726 ft 434 kts 228°
2026-05-04 16:42 48.03149 -0.32031 36073 ft 434 kts 228°
2026-05-04 16:43 47.99302 -0.38993 36115 ft 436 kts 228°
2026-05-04 16:43 47.95446 -0.45960 35394 ft 438 kts 228°
2026-05-04 16:43 47.93487 -0.49486 35325 ft 442 kts 228°
2026-05-04 16:44 47.85738 -0.63395 36043 ft 435 kts 228°
2026-05-04 16:45 47.81867 -0.70314 36265 ft 435 kts 227°
2026-05-04 16:46 47.76071 -0.80649 36587 ft 436 kts 228°
2026-05-04 16:46 47.72170 -0.87581 36659 ft 441 kts 228°
2026-05-04 16:47 47.68218 -0.94584 36794 ft 443 kts 228°
2026-05-04 16:47 47.64257 -1.01587 36909 ft 444 kts 228°
2026-05-04 16:48 47.57021 -1.09800 36919 ft 439 kts 203°
2026-05-04 16:48 47.56803 -1.09947 36918 ft 438 kts 203°
2026-05-04 16:49 47.45910 -1.16726 36916 ft 438 kts 202°
2026-05-04 16:50 47.34675 -1.23681 36918 ft 438 kts 202°
2026-05-04 16:51 47.26257 -1.28884 36916 ft 439 kts 202°
2026-05-04 16:52 47.15001 -1.35818 36917 ft 439 kts 202°
2026-05-04 16:53 47.06573 -1.40990 36926 ft 442 kts 202°
2026-05-04 16:54 46.95169 -1.47960 36926 ft 446 kts 202°
2026-05-04 16:55 46.78021 -1.58380 36930 ft 445 kts 202°
2026-05-04 16:56 46.63774 -1.66981 36924 ft 446 kts 201°
2026-05-04 16:57 46.55187 -1.72144 36937 ft 446 kts 201°
2026-05-04 16:58 46.43745 -1.78994 36937 ft 447 kts 201°
2026-05-04 17:00 46.26536 -1.89237 36942 ft 447 kts 202°
2026-05-04 17:01 46.12166 -1.97739 36943 ft 448 kts 202°
2026-05-04 17:02 46.00639 -2.04523 36948 ft 449 kts 202°
2026-05-04 17:03 45.91995 -2.09589 36955 ft 448 kts 202°
2026-05-04 17:03 45.83355 -2.14637 36960 ft 448 kts 202°
2026-05-04 17:04 45.71815 -2.21352 36957 ft 449 kts 202°
2026-05-04 17:05 45.60266 -2.28044 36954 ft 449 kts 202°
2026-05-04 17:06 45.51602 -2.33044 36951 ft 449 kts 202°
2026-05-04 17:07 45.43972 -2.37434 36952 ft 449 kts 202°
2026-05-04 17:07 45.37234 -2.41299 36953 ft 449 kts 202°
2026-05-04 17:08 45.28903 -2.46065 36956 ft 448 kts 202°
2026-05-04 17:09 45.23130 -2.49358 36954 ft 448 kts 202°
2026-05-04 17:09 45.17356 -2.52646 36958 ft 448 kts 202°
2026-05-04 17:10 45.02931 -2.60827 36955 ft 449 kts 202°
2026-05-04 17:11 44.97144 -2.64096 36955 ft 449 kts 202°
2026-05-04 17:12 44.88479 -2.68977 36956 ft 449 kts 202°
2026-05-04 17:13 44.74327 -2.76916 36961 ft 448 kts 202°
2026-05-04 17:14 44.62764 -2.83373 36966 ft 448 kts 202°
2026-05-04 17:15 44.54088 -2.88198 36974 ft 448 kts 202°
2026-05-04 17:16 44.42508 -2.94614 36978 ft 448 kts 202°
2026-05-04 17:17 44.34065 -2.98552 36980 ft 450 kts 189°
2026-05-04 17:17 44.24953 -2.97682 36435 ft 434 kts 166°
2026-05-04 17:18 44.22096 -2.96368 36226 ft 432 kts 163°
2026-05-04 17:18 44.16466 -2.93617 35813 ft 427 kts 163°
2026-05-04 17:19 44.10893 -2.90903 35396 ft 425 kts 163°
2026-05-04 17:19 44.05313 -2.88204 34691 ft 426 kts 163°
2026-05-04 17:20 43.99711 -2.85506 33627 ft 429 kts 163°
2026-05-04 17:20 43.94076 -2.82801 32610 ft 429 kts 163°
2026-05-04 17:20 43.91274 -2.81456 31925 ft 430 kts 163°
2026-05-04 17:21 43.85556 -2.78721 30089 ft 441 kts 164°
2026-05-04 17:21 43.80925 -2.76511 28801 ft 440 kts 163°
2026-05-04 17:22 43.78051 -2.75137 28186 ft 435 kts 163°
2026-05-04 17:22 43.75210 -2.73780 27563 ft 430 kts 163°
2026-05-04 17:23 43.67226 -2.69979 25811 ft 418 kts 163°
2026-05-04 17:23 43.65307 -2.69067 25395 ft 415 kts 163°
2026-05-04 17:23 43.59911 -2.66506 24140 ft 408 kts 163°
2026-05-04 17:24 43.57248 -2.65246 23514 ft 404 kts 163°
2026-05-04 17:24 43.49182 -2.61434 20671 ft 416 kts 163°
2026-05-04 17:25 43.46464 -2.60151 20024 ft 413 kts 163°
2026-05-04 17:25 43.41102 -2.57622 18797 ft 405 kts 163°
2026-05-04 17:26 43.35819 -2.55134 17545 ft 399 kts 163°
2026-05-04 17:26 43.28104 -2.51510 16158 ft 380 kts 163°
2026-05-04 17:27 43.23185 -2.49202 15441 ft 364 kts 163°
2026-05-04 17:27 43.18393 -2.46963 13955 ft 374 kts 163°
2026-05-04 17:28 43.13441 -2.44655 12544 ft 376 kts 163°
2026-05-04 17:29 43.06152 -2.41033 10814 ft 370 kts 161°
2026-05-04 17:29 42.99121 -2.37498 9859 ft 343 kts 161°
2026-05-04 17:30 42.94030 -2.31739 9259 ft 321 kts 110°
2026-05-04 17:31 42.93984 -2.25938 8903 ft 304 kts 70°
2026-05-04 17:31 42.98636 -2.21651 8453 ft 280 kts 352°
2026-05-04 17:32 43.01915 -2.24065 8198 ft 272 kts 308°
2026-05-04 17:33 43.05253 -2.30298 7840 ft 270 kts 306°
2026-05-04 17:33 43.06365 -2.32367 7718 ft 270 kts 306°
2026-05-04 17:34 43.09799 -2.38468 7266 ft 268 kts 314°
2026-05-04 17:34 43.11075 -2.40327 7057 ft 267 kts 309°
2026-05-04 17:35 43.13952 -2.46815 6156 ft 266 kts 299°
2026-05-04 17:35 43.15639 -2.51270 5944 ft 263 kts 298°
2026-05-04 17:35 43.16458 -2.53514 5949 ft 264 kts 298°
2026-05-04 17:36 43.17274 -2.55775 5948 ft 265 kts 298°
2026-05-04 17:36 43.18085 -2.58028 5790 ft 264 kts 298°
2026-05-04 17:36 43.18894 -2.60278 5435 ft 264 kts 297°
2026-05-04 17:36 43.19714 -2.62552 5026 ft 267 kts 298°
2026-05-04 17:37 43.20532 -2.64815 4622 ft 262 kts 298°
2026-05-04 17:37 43.21330 -2.67018 4233 ft 254 kts 297°
2026-05-04 17:37 43.22101 -2.69144 3855 ft 244 kts 297°
2026-05-04 17:37 43.22836 -2.71165 3498 ft 235 kts 298°
2026-05-04 17:38 43.23555 -2.73137 3148 ft 228 kts 298°
2026-05-04 17:38 43.24253 -2.75052 2808 ft 222 kts 298°
2026-05-04 17:38 43.24932 -2.76913 2480 ft 216 kts 298°
2026-05-04 17:38 43.25576 -2.78679 2164 ft 199 kts 298°
2026-05-04 17:39 43.26708 -2.81779 1647 ft 169 kts 298°
2026-05-04 17:39 43.27212 -2.83155 1411 ft 155 kts 298°
2026-05-04 17:39 43.27679 -2.84431 1159 ft 145 kts 299°
2026-05-04 17:40 43.28114 -2.85619 938 ft 134 kts 298°
2026-05-04 17:40 43.28524 -2.86741 749 ft 130 kts 300°
2026-05-04 17:40 43.28931 -2.87847 570 ft 130 kts 297°
2026-05-04 17:40 43.29328 -2.88954 357 ft 128 kts 299°
2026-05-04 17:41 43.29734 -2.90043 189 ft 127 kts 297°
2026-05-04 17:41 43.30098 -2.91031 131 ft 86 kts 297°
2026-05-04 17:41 43.30270 -2.91531 135 ft 29 kts 295°
2026-05-04 17:41 43.30356 -2.91714 139 ft 22 kts 299°
2026-05-04 17:42 43.30483 -2.91940 141 ft 33 kts 323°
2026-05-04 17:42 43.30618 -2.92027 148 ft 15 kts 44°
2026-05-04 17:42 43.30612 -2.91916 155 ft 16 kts 113°
2026-05-04 17:42 43.30535 -2.91708 158 ft 32 kts 116°